Simultaneous Nadir Overpasses (SNOs) Predictions

Prediction of SNOs between GOES-16 and METOP-C Satellite Orbit:

Table of predicted SNOs for the next 14.0 days since TLE Epoch: 8/17/2024
Index Date Time (GOES-16) GOES-16 Lat,Lon METOP-C Lat,Lon Distance(km) Time Diff (sec)
1 08/18/2024 14:38:51 -0.03, -75.21 0.44, -77.29 237.31 80
2 08/19/2024 14:20:52 -0.03, -75.22 -0.69, -72.30 332.75 80
3 08/21/2024 02:39:51 0.04, -75.22 -0.32, -76.89 189.40 80
4 08/22/2024 02:16:31 0.03, -75.23 0.76, -71.88 381.22 80
5 08/23/2024 14:35:23 -0.04, -75.25 0.21, -76.45 135.68 80
6 08/24/2024 14:17:23 -0.03, -75.27 -0.88, -71.45 435.37 80
7 08/26/2024 02:36:21 0.03, -75.28 -0.16, -76.03 85.54 80
8 08/27/2024 02:13:02 0.03, -75.29 1.00, -71.04 485.67 80
9 08/28/2024 14:31:52 -0.03, -75.32 0.05, -75.58 30.44 80
10 08/31/2024 02:30:10 0.02, -75.36 0.06, -75.17 21.89 80
